Weather History for St. Johns, AZ

Change the Weather History Date:

Saturday, June 29, 2013

  Actual Average (KSOW) Record (KSOW)
Temperature  
Mean Temperature 76 °F -  
Max Temperature 95 °F 83 °F 97 °F (1990)
Min Temperature 57 °F 65 °F 43 °F (1967)
Cooling Degree Days 11    
Growing Degree Days 26 (Base 50)    
Moisture  
Dew Point 37 °F    
Average Humidity 20    
Maximum Humidity 39    
Minimum Humidity 6    
Precipitation  
Precipitation 0.00 in - - ()
Sea Level Pressure  
Sea Level Pressure 29.84 in    
Wind  
Wind Speed 8 mph (SW)    
Max Wind Speed 21 mph    
Max Gust Speed 54 mph    
Visibility 10 miles    
Events Rain    
Averages and records for this station are not official NWS values.
T = Trace of Precipitation, MM = Missing Value Source: NWS Daily Summary

Daily Weather History Graph

Daily Weather History Graph

Search for Another Location

Airport:

Trip Planner

Search our weather history database for the weather conditions in past years. The results will help you decide how hot, cold, wet, or windy it might be!

Date:

Astronomy

Jun. 29, 2013 Rise Set
Actual Time 5:07 AM MST 7:34 PM MST
Civil Twilight 4:38 AM MST 8:03 PM MST
Nautical Twilight 4:02 AM MST 8:39 PM MST
Astronomical Twilight 3:22 AM MST 9:19 PM MST
Moon 11:56 PM MST (6/29) 12:03 PM MST (6/29)
Length of Visible Light 15h 25m
Length of Day
14h 26m
Waning Gibbous, 54% of the Moon is Illuminated
Jun 29
Waning Gibbous
Jun 29
Last Quarter
Jul 8
New
Jul 15
First Quarter
Jul 22
Full

Hourly Weather History & Observations

Time (MST) Temp. Dew Point Humidity Pressure Visibility Wind Dir Wind Speed Gust Speed Precip Events Conditions
12:54 AM 77.0 °F 41.0 °F 28% 29.85 in 10.0 mi South 15.0 mph 23.0 mph N/A   Clear
1:54 AM 73.9 °F 39.0 °F 28% 29.86 in 10.0 mi South 6.9 mph - N/A   Clear
2:54 AM 68.0 °F 39.0 °F 35% 29.86 in 10.0 mi WSW 3.5 mph - N/A   Clear
3:54 AM 66.9 °F 39.0 °F 36% 29.87 in 10.0 mi Calm Calm - N/A   Clear
4:54 AM 62.1 °F 36.0 °F 38% 29.89 in 10.0 mi NW 3.5 mph - N/A   Clear
5:54 AM 62.1 °F 37.0 °F 39% 29.91 in 10.0 mi Calm Calm - N/A   Clear
6:54 AM 70.0 °F 37.9 °F 31% 29.90 in 10.0 mi Calm Calm - N/A   Clear
7:54 AM 75.0 °F 41.0 °F 29% 29.91 in 10.0 mi West 3.5 mph - N/A   Clear
8:54 AM 84.0 °F 37.9 °F 19% 29.88 in 10.0 mi Calm Calm - N/A   Clear
9:54 AM 91.0 °F 35.1 °F 14% 29.85 in 10.0 mi Variable 4.6 mph - N/A   Clear
10:54 AM 93.0 °F 35.1 °F 13% 29.85 in 10.0 mi WNW 9.2 mph - N/A   Clear
11:54 AM 96.1 °F 34.0 °F 11% 29.81 in 10.0 mi West 8.1 mph - N/A   Clear
12:54 PM 97.0 °F 33.1 °F 11% 29.79 in 10.0 mi WSW 11.5 mph 17.3 mph N/A   Clear
1:54 PM 99.0 °F 33.1 °F 10% 29.76 in 10.0 mi West 12.7 mph 32.2 mph N/A   Clear
2:54 PM 97.0 °F 30.9 °F 10% 29.75 in 10.0 mi WSW 10.4 mph 18.4 mph N/A   Clear
3:54 PM 98.1 °F 30.0 °F 9% 29.73 in 10.0 mi Variable 6.9 mph 18.4 mph N/A   Clear
4:54 PM 98.1 °F 32.0 °F 10% 29.72 in 10.0 mi WNW 15.0 mph 26.5 mph N/A   Clear
5:54 PM 95.0 °F 32.0 °F 11% 29.72 in 10.0 mi West 15.0 mph 19.6 mph N/A   Clear
6:54 PM 93.0 °F 30.9 °F 11% 29.72 in 8.0 mi SW 8.1 mph 54.1 mph N/A   Clear
7:40 PM 84.2 °F 44.6 °F 25% 30.12 in 10.0 mi ESE 20.7 mph 32.2 mph 0.00 in Rain Light Rain
7:54 PM 82.9 °F 43.0 °F 24% 29.79 in 10.0 mi SE 15.0 mph 47.2 mph 0.00 in Rain Light Rain
8:54 PM 82.0 °F 44.1 °F 26% 29.80 in 10.0 mi ESE 5.8 mph - 0.00 in   Scattered Clouds
9:54 PM 82.9 °F 39.9 °F 22% 29.83 in 10.0 mi ENE 6.9 mph - N/A   Mostly Cloudy
10:54 PM 81.0 °F 41.0 °F 24% 29.80 in 10.0 mi South 10.4 mph - 0.00 in   Partly Cloudy
11:54 PM 79.0 °F 41.0 °F 26% 29.79 in 10.0 mi South 11.5 mph - N/A   Clear